Location: Blankensee
(53.5126°N, 14.3055°E)
Time: 18:54:22
(UTC+00:00)

ADEOS II - Pass Details

Date: 08 August 2020
Orbit: 799 x 802 km, 98.5° (Epoch: 19 September)

Event Time Altitude Azimuth Distance (km) Brightness Sun altitude
Rises 01:49:03 0° 15° (NNE) 3,325 6.6 -12.4°
Reaches altitude 10° 01:51:24 10° 14° (NNE) 2,390 5.7 -12.2°
Maximum altitude 01:56:41 82° 288° (WNW) 815 2.1 -11.7°
Enters shadow 02:01:25 13° 202° (SSW) 2,169 3.8 -11.2°
